TimeCDT,TemperatureF,Dew PointF,Humidity,Sea Level PressureIn,VisibilityMPH,Wind Direction,Wind SpeedMPH,Gust SpeedMPH,PrecipitationIn,Events,Conditions,WindDirDegrees,DateUTC
12:15 AM,30.7,30.2,98,29.98,1.5,NNE,11.5,-,N/A,Snow,Light Snow,30,2013-03-24 05:15:00
12:35 AM,30.4,29.7,97,29.98,2.0,NE,13.8,-,N/A,Snow,Light Snow,40,2013-03-24 05:35:00
12:55 AM,30.2,29.3,96,29.98,2.0,NE,11.5,-,N/A,Snow,Light Snow,40,2013-03-24 05:55:00
1:15 AM,29.8,28.4,94,29.97,3.0,NE,12.7,-,N/A,Snow,Light Snow,50,2013-03-24 06:15:00
1:35 AM,29.8,28.4,94,29.96,3.0,ENE,13.8,-,N/A,Snow,Light Snow,60,2013-03-24 06:35:00
1:55 AM,29.8,28.0,93,29.97,4.0,ENE,11.5,-,N/A,Snow,Light Snow,70,2013-03-24 06:55:00
2:15 AM,30.2,28.4,93,29.97,5.0,ENE,10.4,-,N/A,Snow,Light Snow,60,2013-03-24 07:15:00
2:35 AM,29.7,27.5,92,29.96,5.0,ENE,11.5,17.3,N/A,Snow,Light Snow,60,2013-03-24 07:35:00
2:55 AM,29.3,28.2,96,29.95,2.5,NE,11.5,-,N/A,Snow,Light Snow,50,2013-03-24 07:55:00
3:15 AM,29.3,28.2,96,29.94,1.8,NE,10.4,-,N/A,Snow,Light Snow,50,2013-03-24 08:15:00
3:35 AM,29.3,28.2,96,29.93,2.0,NE,9.2,-,N/A,Snow,Light Snow,40,2013-03-24 08:35:00
3:55 AM,29.1,28.2,96,29.91,2.0,NNE,11.5,-,N/A,Snow,Light Snow,30,2013-03-24 08:55:00
4:15 AM,28.9,28.0,96,29.89,2.5,NE,13.8,-,N/A,Snow,Light Snow,40,2013-03-24 09:15:00
4:35 AM,28.8,27.9,96,29.88,2.5,NE,15.0,-,N/A,Snow,Light Snow,50,2013-03-24 09:35:00
4:55 AM,28.8,27.7,96,29.88,4.0,NE,10.4,-,N/A,Snow,Light Snow,40,2013-03-24 09:55:00
5:15 AM,28.8,27.5,95,29.89,5.0,NE,9.2,-,N/A,Snow,Light Snow,40,2013-03-24 10:15:00
5:35 AM,29.1,27.5,94,29.89,4.0,NE,8.1,-,N/A,Snow,Light Snow,40,2013-03-24 10:35:00
5:55 AM,28.8,27.9,96,29.89,3.0,NNE,8.1,-,N/A,Snow,Light Snow,30,2013-03-24 10:55:00
6:15 AM,28.8,28.0,97,29.87,2.5,NNE,10.4,-,N/A,Snow,Light Snow,30,2013-03-24 11:15:00
6:35 AM,28.8,27.9,96,29.86,5.0,NNE,9.2,-,N/A,Snow,Light Snow,20,2013-03-24 11:35:00
6:55 AM,28.8,28.2,98,29.86,5.0,North,12.7,-,N/A,,Overcast,10,2013-03-24 11:55:00
7:15 AM,28.9,28.0,96,29.83,5.0,NNE,13.8,-,N/A,Snow,Light Snow,20,2013-03-24 12:15:00
7:35 AM,29.3,28.0,95,29.83,4.0,NNE,13.8,-,N/A,Snow,Light Snow,30,2013-03-24 12:35:00
7:55 AM,29.3,28.0,95,29.79,4.0,NNE,17.3,-,N/A,Snow,Light Snow,30,2013-03-24 12:55:00
8:15 AM,29.3,28.2,96,29.78,5.0,NNE,20.7,26.5,N/A,Snow,Light Snow,20,2013-03-24 13:15:00
8:35 AM,29.5,28.0,94,29.79,4.0,NNE,15.0,-,N/A,Snow,Light Snow,30,2013-03-24 13:35:00
8:55 AM,29.8,27.3,90,29.79,5.0,NNE,16.1,-,N/A,Snow,Light Snow,20,2013-03-24 13:55:00
9:15 AM,29.8,27.5,91,29.77,7.0,NNE,21.9,-,N/A,Snow,Light Snow,20,2013-03-24 14:15:00
9:35 AM,29.8,27.5,91,29.78,5.0,NNE,17.3,-,N/A,Snow,Light Snow,20,2013-03-24 14:35:00
9:55 AM,30.0,27.9,92,29.79,5.0,NNE,15.0,-,N/A,Snow,Light Snow,20,2013-03-24 14:55:00
10:15 AM,30.0,28.2,93,29.79,5.0,North,12.7,-,N/A,Snow,Light Snow,10,2013-03-24 15:15:00
10:35 AM,30.4,28.2,92,29.79,4.0,North,11.5,-,N/A,Snow,Light Snow,360,2013-03-24 15:35:00
10:55 AM,30.6,28.9,94,29.79,0.8,North,12.7,-,N/A,Snow,Light Snow,360,2013-03-24 15:55:00
11:15 AM,30.7,29.3,94,29.79,0.2,North,12.7,-,N/A,Snow,Snow,360,2013-03-24 16:15:00
11:35 AM,31.1,29.8,95,29.77,0.5,North,13.8,-,N/A,Snow,Light Snow,360,2013-03-24 16:35:00
11:55 AM,31.5,30.0,94,29.77,0.8,North,15.0,-,N/A,Snow,Light Snow,350,2013-03-24 16:55:00
12:15 PM,31.6,30.2,94,29.76,0.8,North,12.7,-,N/A,Snow,Light Snow,350,2013-03-24 17:15:00
12:35 PM,32.0,30.6,94,29.75,0.5,North,13.8,-,N/A,Snow,Light Snow,360,2013-03-24 17:35:00
12:55 PM,32.0,30.2,93,29.74,0.8,North,17.3,-,N/A,Snow,Light Snow,360,2013-03-24 17:55:00
1:15 PM,32.0,30.4,94,29.73,0.8,North,20.7,24.2,N/A,Snow,Light Snow,360,2013-03-24 18:15:00
1:35 PM,32.0,30.2,93,29.72,1.0,North,16.1,-,N/A,Snow,Light Snow,360,2013-03-24 18:35:00
1:55 PM,32.0,31.1,96,29.71,0.8,North,19.6,-,N/A,Snow,Light Snow,350,2013-03-24 18:55:00
2:15 PM,32.0,30.7,95,29.70,0.8,North,18.4,-,N/A,Snow,Light Snow,350,2013-03-24 19:15:00
2:35 PM,32.0,30.9,96,29.69,0.8,North,18.4,23.0,N/A,Snow,Light Snow,350,2013-03-24 19:35:00
2:55 PM,32.0,30.9,96,29.69,0.8,North,20.7,-,N/A,Snow,Light Snow,360,2013-03-24 19:55:00
3:15 PM,32.0,30.2,93,29.69,0.8,North,21.9,26.5,N/A,Snow,Light Snow,360,2013-03-24 20:15:00
3:35 PM,32.0,30.6,94,29.69,0.8,North,20.7,27.6,N/A,Snow,Light Snow,360,2013-03-24 20:35:00
3:55 PM,32.0,30.7,95,29.69,0.8,North,18.4,-,N/A,Snow,Light Snow,350,2013-03-24 20:55:00
4:15 PM,32.0,30.6,94,29.70,0.8,North,19.6,25.3,N/A,Snow,Light Snow,350,2013-03-24 21:15:00
4:35 PM,32.0,30.7,95,29.71,0.8,North,18.4,24.2,N/A,Snow,Light Snow,350,2013-03-24 21:35:00
4:55 PM,32.0,30.6,94,29.71,0.8,North,16.1,-,N/A,Snow,Light Snow,350,2013-03-24 21:55:00
5:15 PM,31.8,30.7,96,29.72,1.0,NNW,20.7,25.3,N/A,Snow,Light Snow,340,2013-03-24 22:15:00
5:35 PM,31.5,30.4,96,29.72,0.8,NNW,19.6,-,N/A,Snow,Light Snow,340,2013-03-24 22:35:00
5:55 PM,31.1,30.2,96,29.73,0.5,NNW,18.4,24.2,N/A,Snow,Light Snow,340,2013-03-24 22:55:00
6:15 PM,30.7,30.0,97,29.74,0.8,NNW,19.6,-,N/A,Snow,Light Snow,340,2013-03-24 23:15:00
6:35 PM,30.7,30.0,97,29.75,1.0,NNW,18.4,-,N/A,Snow,Light Snow,340,2013-03-24 23:35:00
6:55 PM,30.6,29.8,97,29.76,1.2,NNW,19.6,23.0,N/A,Snow,Light Snow,340,2013-03-24 23:55:00
7:15 PM,30.2,29.7,98,29.76,1.0,NNW,16.1,23.0,N/A,Snow,Light Snow,340,2013-03-25 00:15:00
7:35 PM,30.2,29.3,96,29.77,1.2,NNW,19.6,23.0,N/A,Snow,Light Snow,340,2013-03-25 00:35:00
7:55 PM,30.0,29.3,97,29.77,1.8,NNW,15.0,-,N/A,Snow,Light Snow,340,2013-03-25 00:55:00
8:15 PM,30.0,29.3,97,29.78,2.0,NNW,17.3,-,N/A,Snow,Light Snow,340,2013-03-25 01:15:00
8:35 PM,29.8,29.1,97,29.79,2.0,NNW,12.7,-,N/A,Snow,Light Snow,340,2013-03-25 01:35:00
8:55 PM,29.8,29.1,97,29.79,2.5,NNW,17.3,-,N/A,Snow,Light Snow,340,2013-03-25 01:55:00
9:15 PM,29.8,28.9,96,29.80,2.5,NNW,16.1,-,N/A,Snow,Light Snow,330,2013-03-25 02:15:00
9:35 PM,29.8,28.9,96,29.80,3.0,NNW,16.1,-,N/A,Snow,Light Snow,330,2013-03-25 02:35:00
9:55 PM,29.7,28.9,97,29.80,2.5,NNW,11.5,17.3,N/A,Snow,Light Snow,330,2013-03-25 02:55:00
10:15 PM,29.5,28.9,98,29.80,3.0,NNW,12.7,-,N/A,Snow,Light Snow,330,2013-03-25 03:15:00
10:35 PM,29.7,28.8,96,29.80,4.0,NNW,12.7,-,N/A,Snow,Light Snow,330,2013-03-25 03:35:00
10:55 PM,29.3,28.4,96,29.80,4.0,NNW,12.7,-,N/A,Snow,Light Snow,330,2013-03-25 03:55:00
11:15 PM,29.3,28.4,96,29.80,5.0,NW,11.5,-,N/A,Snow,Light Snow,320,2013-03-25 04:15:00
11:35 PM,29.3,28.2,96,29.80,10.0,NNW,13.8,-,N/A,Snow,Light Snow,330,2013-03-25 04:35:00
11:55 PM,29.3,27.9,94,29.80,10.0,NNW,12.7,-,N/A,,Overcast,330,2013-03-25 04:55:00